Weather History for Fosston, MN

Change the Weather History Date:

Friday, December 13, 2013

  Actual Average Record
Temperature  
Mean Temperature -4 °F -  
Max Temperature 0 °F 24 °F 44 °F (2002)
Min Temperature -7 °F 2 °F -23 °F (2010)
Degree Days  
Heating Degree Days 68    
Moisture  
Dew Point -12 °F    
Average Humidity 74    
Maximum Humidity 85    
Minimum Humidity 65    
Precipitation  
Precipitation 0.00 in - - ()
Sea Level Pressure  
Sea Level Pressure 30.27 in    
Wind  
Wind Speed 9 mph (NE)    
Max Wind Speed 12 mph    
Max Gust Speed 16 mph    
Visibility 8 miles    
Events Snow    
Averages and records for this station are not official NWS values.
T = Trace of Precipitation, MM = Missing Value Source: NWS Daily Summary

Daily Weather History Graph

Daily Weather History Graph

Search for Another Location

Airport:

Trip Planner

Search our weather history database for the weather conditions in past years. The results will help you decide how hot, cold, wet, or windy it might be!

Date:

Astronomy

Dec. 13, 2013 Rise Set
Actual Time 8:03 AM CST 4:31 PM CST
Civil Twilight 7:27 AM CST 5:07 PM CST
Nautical Twilight 6:48 AM CST 5:46 PM CST
Astronomical Twilight 6:10 AM CST 6:24 PM CST
Moon 2:25 PM CST (12/13) 4:15 AM CST (12/13)
Length of Visible Light 9h 40m
Length of Day
8h 28m
Waxing Gibbous, 88% of the Moon is Illuminated
Dec 13
Waxing Gibbous
Dec 17
Full
Dec 25
Last Quarter
Jan 1
New
Jan 7
First Quarter

Hourly Weather History & Observations

Time (CST) Temp. Windchill Dew Point Humidity Pressure Visibility Wind Dir Wind Speed Gust Speed Precip Events Conditions
12:15 AM -0.4 °F -15.7 °F -5.8 °F 78% 30.20 in 10.0 mi North 9.2 mph - N/A   Overcast
12:35 AM -0.4 °F -15.7 °F -5.8 °F 78% 30.20 in 7.0 mi North 9.2 mph - N/A   Overcast
12:55 AM -0.4 °F -15.7 °F -5.8 °F 78% 30.20 in 3.0 mi North 9.2 mph - N/A Snow Light Snow
1:16 AM -0.4 °F -14.7 °F -5.8 °F 78% 30.20 in 4.0 mi NNE 8.1 mph - N/A Snow Light Snow
1:35 AM -2.2 °F -16.8 °F -5.8 °F 85% 30.21 in 7.0 mi NNE 8.1 mph - N/A   Overcast
1:55 AM -2.2 °F -15.6 °F -5.8 °F 85% 30.20 in 5.0 mi NE 6.9 mph - N/A   Overcast
2:16 AM -2.2 °F -18.9 °F -7.6 °F 78% 30.21 in 5.0 mi NE 10.4 mph - N/A   Overcast
2:35 AM -4.0 °F -20.2 °F -7.6 °F 85% 30.21 in 3.0 mi NE 9.2 mph - N/A Snow Light Snow
2:55 AM -4.0 °F -22.1 °F -9.4 °F 78% 30.22 in 3.0 mi NE 11.5 mph 16.1 mph N/A Snow Light Snow
3:15 AM -5.8 °F -22.4 °F -9.4 °F 84% 30.20 in 4.0 mi NE 9.2 mph - N/A Snow Light Snow
3:35 AM -5.8 °F -21.2 °F -11.2 °F 77% 30.21 in 4.0 mi NE 8.1 mph - N/A Snow Light Snow
3:55 AM -5.8 °F -22.4 °F -11.2 °F 77% 30.21 in 4.0 mi ENE 9.2 mph - N/A   Haze
4:15 AM -7.6 °F -25.7 °F -11.2 °F 84% 30.21 in 4.0 mi NE 10.4 mph - N/A Snow Light Snow
4:35 AM -7.6 °F -24.6 °F -13.0 °F 77% 30.21 in 3.0 mi NE 9.2 mph 16.1 mph N/A Snow Light Snow
4:55 AM -7.6 °F -25.7 °F -13.0 °F 77% 30.21 in 2.5 mi NE 10.4 mph - N/A Snow Light Snow
5:15 AM -7.6 °F -22.1 °F -13.0 °F 77% 30.22 in 2.5 mi NE 6.9 mph - N/A Snow Light Snow
5:35 AM -7.6 °F -23.4 °F -13.0 °F 77% 30.22 in 3.0 mi NE 8.1 mph - N/A Snow Light Snow
5:55 AM -7.6 °F -20.6 °F -14.8 °F 71% 30.23 in 4.0 mi NE 5.8 mph - N/A Snow Light Snow
6:15 AM -7.6 °F -22.1 °F -13.0 °F 77% 30.24 in 5.0 mi NE 6.9 mph - N/A Snow Light Snow
6:35 AM -7.6 °F -20.6 °F -13.0 °F 77% 30.24 in 7.0 mi NE 5.8 mph - N/A Snow Light Snow
6:55 AM -7.6 °F -20.6 °F -13.0 °F 77% 30.24 in 7.0 mi NE 5.8 mph - N/A   Overcast
7:15 AM -7.6 °F -20.6 °F -13.0 °F 77% 30.24 in 5.0 mi NE 5.8 mph - N/A Snow Light Snow
7:35 AM -7.6 °F -23.4 °F -13.0 °F 77% 30.24 in 7.0 mi NE 8.1 mph - N/A Snow Light Snow
7:55 AM -7.6 °F -24.6 °F -13.0 °F 77% 30.25 in 10.0 mi NE 9.2 mph - N/A Snow Light Snow
8:15 AM -7.6 °F -25.7 °F -13.0 °F 77% 30.26 in 10.0 mi NE 10.4 mph - N/A   Overcast
8:35 AM -7.6 °F -26.6 °F -14.8 °F 71% 30.26 in 10.0 mi NE 11.5 mph 16.1 mph N/A   Mostly Cloudy
8:55 AM -7.6 °F -24.6 °F -13.0 °F 77% 30.26 in 10.0 mi NE 9.2 mph - N/A   Mostly Cloudy
9:15 AM -7.6 °F -24.6 °F -13.0 °F 77% 30.28 in 10.0 mi NNE 9.2 mph - N/A   Mostly Cloudy
9:35 AM -7.6 °F -24.6 °F -13.0 °F 77% 30.28 in 10.0 mi NE 9.2 mph - N/A   Overcast
9:55 AM -7.6 °F -24.6 °F -13.0 °F 77% 30.29 in 10.0 mi NNE 9.2 mph - N/A   Scattered Clouds
10:15 AM -7.6 °F -24.6 °F -13.0 °F 77% 30.29 in 10.0 mi NE 9.2 mph - N/A   Clear
10:35 AM -7.6 °F -23.4 °F -13.0 °F 77% 30.30 in 10.0 mi NE 8.1 mph - N/A   Scattered Clouds
10:55 AM -5.8 °F -22.4 °F -11.2 °F 77% 30.30 in 10.0 mi NE 9.2 mph - N/A   Scattered Clouds
11:15 AM -5.8 °F -23.4 °F -13.0 °F 71% 30.29 in 10.0 mi ENE 10.4 mph - N/A   Clear
11:35 AM -4.0 °F -20.2 °F -11.2 °F 71% 30.29 in 10.0 mi ENE 9.2 mph - N/A   Clear
11:55 AM -2.2 °F -18.0 °F -11.2 °F 66% 30.28 in 10.0 mi NE 9.2 mph - N/A   Clear
12:15 PM -2.2 °F -14.2 °F -11.2 °F 66% 30.28 in 10.0 mi NE 5.8 mph - N/A   Clear
12:35 PM -4.0 °F -16.3 °F -13.0 °F 65% 30.29 in 10.0 mi NE 5.8 mph - N/A   Clear
12:55 PM -2.2 °F -18.0 °F -11.2 °F 66% 30.27 in 10.0 mi NE 9.2 mph - N/A   Clear
1:15 PM -2.2 °F -16.8 °F -11.2 °F 66% 30.28 in 10.0 mi NE 8.1 mph - N/A   Clear
1:35 PM -4.0 °F -16.3 °F -13.0 °F 65% 30.28 in 10.0 mi NE 5.8 mph - N/A   Clear
1:55 PM -5.8 °F -24.4 °F -14.8 °F 65% 30.28 in 10.0 mi NNE 11.5 mph - N/A   Scattered Clouds
2:15 PM -5.8 °F -23.4 °F -14.8 °F 65% 30.28 in 10.0 mi NNE 10.4 mph - N/A   Scattered Clouds
2:35 PM -5.8 °F -22.4 °F -14.8 °F 65% 30.29 in 10.0 mi NNE 9.2 mph - N/A   Scattered Clouds
2:55 PM -5.8 °F -22.4 °F -13.0 °F 71% 30.28 in 10.0 mi NNE 9.2 mph - N/A   Scattered Clouds
3:15 PM -5.8 °F -22.4 °F -13.0 °F 71% 30.29 in 10.0 mi NE 9.2 mph - N/A   Scattered Clouds
3:35 PM -5.8 °F -23.4 °F -13.0 °F 71% 30.29 in 10.0 mi NNE 10.4 mph - N/A   Mostly Cloudy
3:55 PM -5.8 °F -24.4 °F -14.8 °F 65% 30.29 in 10.0 mi NNE 11.5 mph - N/A   Overcast
4:15 PM -7.6 °F -25.7 °F -14.8 °F 71% 30.29 in 10.0 mi NE 10.4 mph - N/A   Overcast
4:35 PM -7.6 °F -25.7 °F -14.8 °F 71% 30.31 in 10.0 mi NNE 10.4 mph 16.1 mph N/A   Overcast
4:55 PM -7.6 °F -23.4 °F -14.8 °F 71% 30.31 in 10.0 mi NE 8.1 mph - N/A   Overcast
5:15 PM -7.6 °F -25.7 °F -14.8 °F 71% 30.31 in 10.0 mi NE 10.4 mph - N/A   Overcast
5:35 PM -7.6 °F -24.6 °F -14.8 °F 71% 30.32 in 10.0 mi NE 9.2 mph - N/A   Overcast
5:55 PM -5.8 °F -23.4 °F -14.8 °F 65% 30.32 in 10.0 mi NE 10.4 mph - N/A   Overcast
6:15 PM -5.8 °F -19.9 °F -14.8 °F 65% 30.32 in 10.0 mi NE 6.9 mph - N/A   Overcast
6:35 PM -5.8 °F -21.2 °F -14.8 °F 65% 30.33 in 10.0 mi NE 8.1 mph - N/A   Scattered Clouds
6:55 PM -5.8 °F -19.9 °F -13.0 °F 71% 30.34 in 10.0 mi NE 6.9 mph - N/A   Mostly Cloudy
7:15 PM -5.8 °F -21.2 °F -13.0 °F 71% 30.34 in 10.0 mi ENE 8.1 mph - N/A   Overcast
7:35 PM -5.8 °F -21.2 °F -13.0 °F 71% 30.33 in 10.0 mi NE 8.1 mph - N/A   Overcast
7:55 PM -5.8 °F -19.9 °F -13.0 °F 71% 30.34 in 10.0 mi ENE 6.9 mph - N/A   Overcast
8:15 PM -5.8 °F -16.7 °F -11.2 °F 77% 30.34 in 10.0 mi East 4.6 mph - N/A   Overcast
8:35 PM -5.8 °F -18.4 °F -11.2 °F 77% 30.34 in 10.0 mi ENE 5.8 mph - N/A   Overcast
8:55 PM -5.8 °F -19.9 °F -11.2 °F 77% 30.34 in 10.0 mi ENE 6.9 mph - N/A   Overcast
9:15 PM -5.8 °F -19.9 °F -11.2 °F 77% 30.34 in 10.0 mi ENE 6.9 mph - N/A   Overcast
9:35 PM -5.8 °F -18.4 °F -11.2 °F 77% 30.33 in 10.0 mi ENE 5.8 mph - N/A   Overcast
9:55 PM -4.0 °F -16.3 °F -11.2 °F 71% 30.33 in 10.0 mi ENE 5.8 mph - N/A   Overcast
10:15 PM -4.0 °F -16.3 °F -11.2 °F 71% 30.32 in 10.0 mi ENE 5.8 mph - N/A   Overcast
10:35 PM -4.0 °F -17.8 °F -9.4 °F 78% 30.32 in 10.0 mi East 6.9 mph - N/A   Overcast
10:55 PM -4.0 °F -16.3 °F -9.4 °F 78% 30.32 in 10.0 mi East 5.8 mph - N/A   Overcast
11:15 PM -4.0 °F -16.3 °F -11.2 °F 71% 30.31 in 10.0 mi East 5.8 mph - N/A   Overcast
11:35 PM -4.0 °F -14.6 °F -11.2 °F 71% 30.32 in 10.0 mi East 4.6 mph - N/A   Overcast
11:55 PM -4.0 °F -14.6 °F -11.2 °F 71% 30.31 in 7.0 mi East 4.6 mph - N/A   Overcast